Location: Forestville
(38.4740°N, 122.8890°W)
Time: 13:01:52
(UTC-07:00)

Amateur Radio Satellites - All Passes

Search period start: 31 October 2014 12:31
Search period end: 01 November 2014 12:31
Location: Forestville, 38.4740°N, 122.8890°W

Satellite Date Start Highest point End Downlink Frequencies (MHz)
Time Altitude Azimuth
FUNcube-1 31 Oct 12:36:58 12:39:50 18° 293° (WNW) 12:42:41 145.950 - 145.970 MHz USB
Oscar 19 31 Oct 13:02:53 13:07:06 26° 67° (ENE) 13:11:18 437.125 CW, 437.150 USB
UOSAT-12 31 Oct 13:11:23 13:15:59 73° 119° (ESE) 13:20:41 437.025 FM, 437.400 FM
Sapphire 31 Oct 13:17:40 13:22:09 27° 252° (WSW) 13:26:36 437.095 MHz 1200 baud AX-25 AFSK
KITSAT 1 31 Oct 13:24:33 13:30:49 24° 319° (NW) 13:37:08 435.175 FM
JAS-1B 31 Oct 13:26:03 13:31:23 41° 69° (ENE) 13:36:43 435.800 - 435.900 CW/SSB
AO-27 31 Oct 13:39:26 13:43:35 25° 66° (ENE) 13:47:45 436.795 MHz FM
PCSat 31 Oct 13:40:28 13:43:34 16° 256° (WSW) 13:46:38 145.825 MHz
Saudisat 1A 31 Oct 13:48:20 13:50:44 14° 43° (NE) 13:53:09 436.775 MHz
Oscar 16 31 Oct 13:48:50 13:53:59 75° 75° (ENE) 13:59:07 437.025 USB, Beacon 2401.1428
Gurwin Techsat 1B 31 Oct 13:56:02 13:59:37 19° 64° (ENE) 14:03:11 435.225 FM
TMSAT-1 31 Oct 14:02:55 14:06:00 16° 62° (ENE) 14:09:06 436.925 FM
Uribyol 2 31 Oct 14:21:55 14:27:04 65° 73° (ENE) 14:32:15 436.500 FM
AO-Echo 31 Oct 14:23:06 14:28:04 80° 75° (ENE) 14:33:14 ?
ITAMSAT 1 31 Oct 14:29:52 14:35:03 72° 74° (ENE) 14:40:17 435.822 SSB
Oscar 19 31 Oct 14:41:36 14:46:16 35° 263° (W) 14:50:56 437.125 CW, 437.150 USB
UOSAT-12 31 Oct 14:53:50 14:56:40 16° 317° (NW) 14:59:31 437.025 FM, 437.400 FM
AO-7 31 Oct 14:54:46 15:00:45 23° 55° (NE) 15:06:45 29.400 - 29.500 MHz
JAS-1B 31 Oct 15:17:54 15:22:19 22° 266° (W) 15:26:40 435.800 - 435.900 CW/SSB
AO-27 31 Oct 15:18:00 15:22:51 39° 262° (W) 15:27:44 436.795 MHz FM
Saudisat 1A 31 Oct 15:26:23 15:30:48 73° 241° (WSW) 15:35:11 436.775 MHz
Oscar 16 31 Oct 15:32:09 15:33:50 12° 270° (W) 15:35:30 437.025 USB, Beacon 2401.1428
Gurwin Techsat 1B 31 Oct 15:33:56 15:39:07 54° 260° (W) 15:44:20 435.225 FM
ISS 31 Oct 15:39:41 15:41:50 16° 22° (NNE) 15:43:59 145.800 FM
TMSAT-1 31 Oct 15:40:06 15:45:21 65° 259° (WSW) 15:50:38 436.925 FM
Uribyol 2 31 Oct 16:04:17 16:06:57 14° 269° (W) 16:09:38 436.500 FM
AO-Echo 31 Oct 16:06:51 16:07:28 10° 272° (W) 16:08:05 ?
ITAMSAT 1 31 Oct 16:12:57 16:15:02 12° 270° (W) 16:17:08 435.822 SSB
Uosat F 31 Oct 16:15:07 16:19:45 39° 70° (ENE) 16:24:25 435.120 FM
AO-7 31 Oct 16:44:21 16:52:37 81° 253° (WSW) 17:00:57 29.400 - 29.500 MHz
ISS 31 Oct 17:15:35 17:18:56 86° 39° (NE) 17:22:16 145.800 FM
Hamsat 31 Oct 17:19:14 17:22:17 20° 68° (ENE) 17:25:19 145.90 MHz
JAS-2 31 Oct 17:23:52 17:29:53 51° 69° (ENE) 17:36:43 435.800 - 435.900 CW/SSB, 435.910 FM
KITSAT 1 31 Oct 17:29:21 17:30:23 10° 21° (NNE) 17:31:24 435.175 FM
Oscar 10/S400 31 Oct 17:40:55 18:01:39 65° 179° (S) 02:31:57 145.825 - 145.975 CW/USB, Beacon 145.810 USB
Uosat F 31 Oct 17:54:44 17:58:37 22° 265° (W) 18:02:32 435.120 FM
OPAL 31 Oct 18:24:42 18:29:36 58° 103° (ESE) 18:34:27 ?
AO-7 31 Oct 18:42:46 18:46:31 14° 270° (W) 18:50:18 29.400 - 29.500 MHz
STRAND 1 31 Oct 18:45:07 18:47:02 12° 90° (E) 18:48:56 ?
Hamsat 31 Oct 18:54:18 18:58:01 31° 263° (W) 19:01:44 145.90 MHz
JAS-2 31 Oct 19:10:16 19:15:19 25° 269° (W) 19:20:53 435.800 - 435.900 CW/SSB, 435.910 FM
SO-50 31 Oct 19:21:09 19:24:50 21° 46° (NE) 19:28:32 436.795 FM
KITSAT 1 31 Oct 19:21:34 19:28:47 34° 48° (NE) 19:35:57 435.175 FM
SO-67 31 Oct 19:30:51 19:34:17 84° 78° (ENE) 19:37:44 435.3500 MHz FM
OPAL 31 Oct 20:05:01 20:07:59 16° 299° (WNW) 20:10:57 ?
STRAND 1 31 Oct 20:21:34 20:26:43 72° 286° (WNW) 20:31:48 ?
HO-68 31 Oct 20:41:04 20:47:52 49° 67° (ENE) 20:54:42 435.675 MHz FM
RS-15 31 Oct 20:55:27 21:06:01 54° 112° (ESE) 21:16:27 29.354 - 29.394 USB, Beacon 29.352 USB
SO-50 31 Oct 21:00:57 21:05:41 52° 243° (WSW) 21:10:25 436.795 FM
UKube-1 31 Oct 21:03:21 21:06:12 17° 66° (ENE) 21:09:05 145.840 MHz, 145.915 MHz
KITSAT 1 31 Oct 21:16:41 21:24:32 57° 248° (WSW) 21:32:21 435.175 FM
Oscar 11 31 Oct 21:36:41 21:40:38 36° 72° (ENE) 21:44:34 145.825 FM, Beacon 2401.500 USB
UOSAT-12 31 Oct 21:42:33 21:47:02 42° 53° (NE) 21:51:26 437.025 FM, 437.400 FM
MaSat-1 31 Oct 21:54:44 21:58:21 35° 110° (ESE) 22:01:40 437.345 MHz
FUNcube-1 31 Oct 21:54:54 21:58:35 25° 69° (ENE) 22:02:13 145.950 - 145.970 MHz USB
HO-68 31 Oct 22:29:35 22:35:43 30° 264° (W) 22:41:54 435.675 MHz FM
UKube-1 31 Oct 22:37:58 22:42:04 40° 261° (W) 22:46:11 145.840 MHz, 145.915 MHz
ZACube-1 31 Oct 22:47:23 22:51:56 85° 258° (WSW) 22:56:25 437.345 MHz
AO-40 31 Oct 22:48:08 00:04:19 18° 236° (SW) 02:09:42 Beacon 2401.320
RS-15 31 Oct 23:08:16 23:18:33 44° 314° (NW) 23:28:55 29.354 - 29.394 USB, Beacon 29.352 USB
Oscar 11 31 Oct 23:13:58 23:16:54 18° 267° (W) 23:19:51 145.825 FM, Beacon 2401.500 USB
UOSAT-12 31 Oct 23:23:23 23:26:53 21° 250° (WSW) 23:30:19 437.025 FM, 437.400 FM
FUNcube-1 31 Oct 23:30:55 23:34:49 28° 264° (W) 23:38:41 145.950 - 145.970 MHz USB
MaSat-1 31 Oct 23:31:25 23:33:45 16° 302° (WNW) 23:35:58 437.345 MHz
JAS-1B 01 Nov 01:11:07 01:15:17 15° 92° (E) 01:19:46 435.800 - 435.900 CW/SSB
RS-15 01 Nov 01:28:09 01:34:56 18° 346° (NNW) 01:41:49 29.354 - 29.394 USB, Beacon 29.352 USB
Oscar 16 01 Nov 02:02:30 02:06:57 29° 96° (E) 02:11:22 437.025 USB, Beacon 2401.1428
Sapphire 01 Nov 02:14:02 02:19:12 48° 112° (ESE) 02:24:24 437.095 MHz 1200 baud AX-25 AFSK
AO-Echo 01 Nov 02:32:13 02:36:53 30° 96° (E) 02:41:28 ?
PCSat 01 Nov 02:35:20 02:40:44 82° 116° (ESE) 02:46:11 145.825 MHz
Uribyol 2 01 Nov 02:36:48 02:41:05 26° 95° (E) 02:45:20 436.500 FM
ITAMSAT 1 01 Nov 02:44:47 02:49:17 29° 96° (E) 02:53:44 435.822 SSB
Oscar 19 01 Nov 02:54:02 02:59:11 88° 284° (WNW) 03:04:18 437.125 CW, 437.150 USB
JAS-1B 01 Nov 02:58:59 03:06:18 87° 105° (ESE) 03:15:04 435.800 - 435.900 CW/SSB
AO-27 01 Nov 03:32:05 03:37:20 85° 104° (ESE) 03:42:32 436.795 MHz FM
Oscar 16 01 Nov 03:41:47 03:46:14 31° 292° (WNW) 03:50:40 437.025 USB, Beacon 2401.1428
RS-15 01 Nov 03:45:34 03:53:24 21° 23° (NNE) 04:01:23 29.354 - 29.394 USB, Beacon 29.352 USB
Gurwin Techsat 1B 01 Nov 03:51:30 03:56:49 69° 102° (ESE) 04:02:05 435.225 FM
TMSAT-1 01 Nov 03:57:26 04:02:40 57° 101° (E) 04:07:51 436.925 FM
Sapphire 01 Nov 03:58:31 04:02:52 24° 310° (NW) 04:07:14 437.095 MHz 1200 baud AX-25 AFSK
OPAL 01 Nov 04:03:51 04:05:07 11° 58° (ENE) 04:06:24 ?
AO-Echo 01 Nov 04:10:54 04:15:34 32° 292° (WNW) 04:20:09 ?
Uribyol 2 01 Nov 04:15:53 04:20:35 36° 291° (WNW) 04:25:16 436.500 FM
PCSat 01 Nov 04:21:34 04:24:50 16° 315° (NW) 04:28:07 145.825 MHz
ITAMSAT 1 01 Nov 04:24:08 04:28:44 32° 292° (WNW) 04:33:17 435.822 SSB
Uosat F 01 Nov 04:26:03 04:28:21 13° 91° (E) 04:30:38 435.120 FM
Oscar 19 01 Nov 04:36:54 04:37:43 10° 300° (WNW) 04:38:31 437.125 CW, 437.150 USB
AO-7 01 Nov 04:47:53 04:55:32 38° 99° (E) 05:03:07 29.400 - 29.500 MHz
JAS-1B 01 Nov 04:51:35 04:56:16 19° 299° (WNW) 05:01:26 435.800 - 435.900 CW/SSB
PANSAT 01 Nov 04:56:37 04:59:09 17° 173° (S) 05:01:42 not established
AO-27 01 Nov 05:14:14 05:16:05 12° 300° (WNW) 05:17:55 436.795 MHz FM
Saudisat 1A 01 Nov 05:31:21 05:35:27 40° 115° (ESE) 05:39:34 436.775 MHz
Gurwin Techsat 1B 01 Nov 05:33:14 05:36:09 15° 298° (WNW) 05:39:04 435.225 FM
OPAL 01 Nov 05:38:08 05:43:15 89° 74° (ENE) 05:48:20 ?
TMSAT-1 01 Nov 05:38:39 05:42:05 18° 297° (WNW) 05:45:30 436.925 FM
RS-15 01 Nov 05:57:50 06:08:51 59° 52° (NE) 06:20:18 29.354 - 29.394 USB, Beacon 29.352 USB
STRAND 1 01 Nov 05:59:15 06:02:26 17° 63° (ENE) 06:05:37 ?
Uosat F 01 Nov 06:02:32 06:07:33 65° 286° (WNW) 06:12:31 435.120 FM
JAS-2 01 Nov 06:19:07 06:26:52 58° 99° (E) 06:34:15 435.800 - 435.900 CW/SSB, 435.910 FM
PANSAT 01 Nov 06:36:08 06:38:41 17° 186° (S) 06:41:14 not established
AO-7 01 Nov 06:40:32 06:48:20 46° 296° (WNW) 06:56:08 29.400 - 29.500 MHz
Hamsat 01 Nov 06:40:41 06:44:47 48° 99° (E) 06:48:53 145.90 MHz
Saudisat 1A 01 Nov 07:11:45 07:15:09 22° 312° (NW) 07:18:34 436.775 MHz
STRAND 1 01 Nov 07:36:03 07:41:06 58° 259° (W) 07:46:12 ?
MaSat-1 01 Nov 07:40:24 07:42:38 30° 61° (ENE) 07:44:45 437.345 MHz
JAS-2 01 Nov 08:04:46 08:11:21 31° 297° (WNW) 08:17:46 435.800 - 435.900 CW/SSB, 435.910 FM
RS-15 01 Nov 08:10:43 08:20:48 40° 252° (WSW) 08:31:18 29.354 - 29.394 USB, Beacon 29.352 USB
Hamsat 01 Nov 08:18:08 08:20:18 14° 294° (WNW) 08:22:28 145.90 MHz
SO-67 01 Nov 08:28:12 08:31:37 64° 284° (WNW) 08:35:01 435.3500 MHz FM
KITSAT 1 01 Nov 09:49:38 09:55:51 25° 104° (ESE) 10:02:04 435.175 FM
ISS 01 Nov 09:56:27 09:59:43 63° 138° (SE) 10:03:01 145.800 FM
HO-68 01 Nov 09:57:30 10:04:35 57° 102° (ESE) 10:11:36 435.675 MHz FM
UKube-1 01 Nov 10:27:26 10:31:28 36° 98° (E) 10:35:29 145.840 MHz, 145.915 MHz
ZACube-1 01 Nov 10:39:06 10:42:08 19° 94° (E) 10:45:07 437.345 MHz
Oscar 11 01 Nov 11:01:16 11:05:36 89° 279° (W) 11:09:55 145.825 FM, Beacon 2401.500 USB
Sapphire 01 Nov 11:03:36 11:08:22 30° 53° (NE) 11:13:05 437.095 MHz 1200 baud AX-25 AFSK
SO-50 01 Nov 11:14:11 11:18:38 74° 119° (ESE) 11:23:15 436.795 FM
FUNcube-1 01 Nov 11:20:50 11:24:58 60° 101° (E) 11:29:03 145.950 - 145.970 MHz USB
PCSat 01 Nov 11:24:52 11:30:07 47° 57° (ENE) 11:35:19 145.825 MHz
ISS 01 Nov 11:34:12 11:36:40 19° 335° (NNW) 11:39:09 145.800 FM
KITSAT 1 01 Nov 11:42:31 11:50:33 67° 302° (WNW) 11:58:37 435.175 FM
HO-68 01 Nov 11:46:02 11:51:49 27° 299° (WNW) 11:57:35 435.675 MHz FM
UOSAT-12 01 Nov 11:53:47 11:56:45 17° 109° (ESE) 11:59:45 437.025 FM, 437.400 FM
UKube-1 01 Nov 12:04:19 12:07:23 19° 294° (WNW) 12:10:26 145.840 MHz, 145.915 MHz
ZACube-1 01 Nov 12:14:54 12:18:34 30° 289° (WNW) 12:22:12 437.345 MHz
